User: anonymous   Login
Location: Morlupo
(42.1333°N, 12.5000°E)
Time: 01:59:12
(UTC+00:00)
Language:

DELTA 2 R/B (1) - Orbit

View from above orbital plane
View from above orbital plane
View from above satellite
View from above satellite

Ground track
Ground track

The orbit data is extracted from the following two-line orbital elements,

1 27665U 03005C   20329.17631076 -.00000071 +00000-0 +57327-5 0  9999
2 27665 039.5746 194.5106 0008563 164.4930 347.1064 14.28538036930486
Epoch (UTC): 24 November 2020 04:13:53
Eccentricity: 0.0008563
inclination: 39.5746°
perigee height: 790 km
apogee height: 803 km
right ascension of ascending node: 194.5106°
argument of perigee: 164.4930°
revolutions per day: 14.28538036
mean anomaly at epoch: 347.1064°
orbit number at epoch: 93048

The dashed part of the orbit path shows where the satellite is in the earth's shadow,  

DLR